Zurück zum Katalog

COSMOS 2251 DEB

LostLEO
NORAD 35767·DEBRIS·🇷🇺 Russia

Gestartet Jun 16, 1993 von Plesetsk Cosmodrome

Loading…

Nächste Überflüge (nächste 24 Stunden)

TLE

VeraltetSource: Space-Track

Epoche: Dec 9, 2024, 00:26 UTC

1 35767U 93036ARM 24344.01857859  .00024642  00000-0  56122-2 0  9995
2 35767  73.9872 254.4981 0041255  48.2883 312.1797 14.55252674597067

Verfolge COSMOS 2251 DEB in Echtzeit mit AllMySat

Download on the App Store